Weather Service Report


313 
ASUS46 KPQR 271910
RWROR 

OREGON REGIONAL WEATHER ROUNDUP
NATIONAL WEATHER SERVICE PORTLAND OR
1200 PM PDT WED JUL 27 2016

NOTE: "FAIR" INDICATES FEW OR NO CLOUDS BELOW 12,000 FEET WITH
NO SIGNIFICANT WEATHER AND/OR OBSTRUCTIONS TO VISIBILITY.

ORZ001>013-272000-
NORTHWEST OREGON

  
CITY           SKY/WX    TMP DP  RH WIND       PRES   REMARKS
ASTORIA        CLOUDY    65  58  78 NW6       30.16S                  
NEWPORT        SUNNY     64  57  77 N20G25    30.16S                  
PORTLAND       MOSUNNY   71  56  58 NW7       30.11F                  
VANCOUVER WA   MOSUNNY   72  57  59 NW8       30.11S                  
SCAPPOOSE      SUNNY     72  58  61 E10       30.09F                  
HILLSBORO      SUNNY     76  59  55 VRB5      30.09F                  
AURORA         MOSUNNY   72  57  59 E6        30.11F                  
MCMINNVILLE    SUNNY     79  57  46 MISG      30.09F                  
SALEM          SUNNY     78  57  48 N12       30.08F                  
CORVALLIS        N/A     81  57  44 E7        30.10F                  
EUGENE         SUNNY     81  55  40 N13       30.10S                  
$$

ORZ021-028-272000-
SOUTHWEST OREGON

  
CITY           SKY/WX    TMP DP  RH WIND       PRES   REMARKS
NORTH BEND     SUNNY     66  55  68 N15G24    30.11F                  
BROOKINGS      SUNNY     65  55  70 VRB3      29.97S                  
ROSEBURG       SUNNY     82  56  40 N13G18    30.06F                  
SEXTON SUMMIT  SUNNY     72  52  49 VRB6      30.16R                  
MEDFORD        SUNNY     83  53  35 CALM      30.02F                  
$$

ORZ014>016-041-272000-
COLUMBIA GORGE

  
CITY           SKY/WX    TMP DP  RH WIND       PRES   REMARKS
TROUTDALE      MOSUNNY   69  58  67 VRB3      30.12S                  
THE DALLES     SUNNY     86  56  35 NW10      30.00F                  
$$

ORZ029>031-041-044-049-050-061>064-502-503-505>511-272000-
EASTERN OREGON

  
CITY           SKY/WX    TMP DP  RH WIND       PRES   REMARKS
REDMOND        SUNNY     83  35  18 NW12      30.12S                  
BEND           SUNNY     81  41  24 N9        30.13S                  
PRINEVILLE     SUNNY     82  43  24 VRB5      30.12F                  
KLAMATH FALLS  SUNNY     83  50  31 S5        30.13F                  
LAKEVIEW       SUNNY    N/A N/A N/A S7        30.18S                  
HERMISTON      SUNNY     89  56  32 VRB5      30.01F                  
PENDLETON      SUNNY     87  51  28 W12       30.04F                  
JOHN DAY       SUNNY     87  39  18 CALM      30.12F                  
MEACHAM        SUNNY     80  47  31 VRB3      30.16F                  
LA GRANDE      SUNNY     86  48  26 N5        30.08F                  
BAKER CITY     SUNNY     86  40  19 W7        30.12F                  
BURNS          SUNNY     88  40  18 SW6       30.14F                  
ROME             N/A     92  39  15 NW3       30.09F                  
ONTARIO        SUNNY     91  53  27 SE5       30.02F                  
$$
  

Return to Home page


Western Regional Climate Center, wrcc@dri.edu